IRIDIUM 106 1 41917U 17003A 26037.83766406 .00000081 00000+0 21897-4 0 9990 2 41917 86.4022 143.0412 0001816 89.2276 270.9128 14.34218206474523 IRIDIUM 103 1 41918U 17003B 26037.82498947 .00000416 00000+0 14160-3 0 9998 2 41918 86.4021 142.9467 0002512 93.3884 266.7599 14.34218714474547 IRIDIUM 109 1 41919U 17003C 26037.83132241 .00000364 00000+0 12287-3 0 9992 2 41919 86.4016 143.0022 0002050 95.5028 264.6402 14.34218917474514 IRIDIUM 102 1 41920U 17003D 26037.79960731 .00000351 00000+0 11816-3 0 9995 2 41920 86.4021 142.9407 0002118 97.9912 262.1524 14.34216459474595 IRIDIUM 105 1 41921U 17003E 26037.69947315 .00000371 00000+0 12498-3 0 9997 2 41921 86.3969 111.4586 0002226 98.0416 262.1033 14.34402932476439 IRIDIUM 104 1 41922U 17003F 26037.81229503 .00000349 00000+0 11770-3 0 9991 2 41922 86.4020 142.9763 0002458 100.4726 259.6747 14.34218537474587 IRIDIUM 114 1 41923U 17003G 26037.81863133 .00000433 00000+0 14739-3 0 9997 2 41923 86.4025 142.9558 0002209 94.7542 265.3906 14.34216400474566 IRIDIUM 108 1 41924U 17003H 26037.70738779 .00000144 00000+0 44428-4 0 9991 2 41924 86.3964 111.3429 0002079 100.8151 259.3279 14.34219109476405 IRIDIUM 112 1 41925U 17003J 26037.80595189 .00000413 00000+0 14057-3 0 9992 2 41925 86.4016 142.8102 0002136 99.2410 260.9028 14.34217855474588 IRIDIUM 111 1 41926U 17003K 26037.79326745 .00000208 00000+0 67124-4 0 9997 2 41926 86.4019 142.8838 0002245 96.5671 263.5781 14.34218905474568 IRIDIUM 113 1 42803U 17039A 26037.84300030 .00000022 00000+0 83719-6 0 9990 2 42803 86.3983 16.6335 0002340 88.9024 271.2440 14.34217701452506 IRIDIUM 123 1 42804U 17039B 26037.53563559 .00000059 00000+0 13993-4 0 9999 2 42804 86.3929 48.2364 0002336 84.8299 275.3164 14.34217850451225 IRIDIUM 120 1 42805U 17039C 26037.83665645 .00000098 00000+0 27990-4 0 9997 2 42805 86.3969 16.4351 0001895 84.3217 275.8195 14.34218243452493 IRIDIUM 115 1 42806U 17039D 26037.84593803 .00000551 00000+0 15782-3 0 9994 2 42806 86.4508 16.5423 0002244 76.7828 283.3623 14.43281738455466 IRIDIUM 118 1 42807U 17039E 26037.56734887 .00000021 00000+0 48242-6 0 9995 2 42807 86.3930 48.2219 0002350 91.3856 268.7609 14.34217337451227 IRIDIUM 117 1 42808U 17039F 26037.51660784 .00000034 00000+0 50784-5 0 9992 2 42808 86.3928 48.2019 0002291 86.9742 273.1716 14.34217524451240 IRIDIUM 126 1 42809U 17039G 26037.54197778 .00000041 00000+0 75301-5 0 9994 2 42809 86.3928 48.2403 0002387 88.9058 271.2411 14.34217481451227 IRIDIUM 124 1 42810U 17039H 26037.84907548 .00000604 00000+0 17356-3 0 9992 2 42810 86.4534 344.8527 0002286 80.9163 279.2296 14.43280931456316 IRIDIUM 128 1 42811U 17039J 26037.60249528 .00000353 00000+0 11905-3 0 9999 2 42811 86.3921 79.7606 0002004 90.0203 270.1223 14.34217640451269 IRIDIUM 121 1 42812U 17039K 26037.56100240 .00000174 00000+0 55237-4 0 9990 2 42812 86.3930 48.2591 0002105 90.4891 269.6546 14.34217676451106 IRIDIUM 133 1 42955U 17061A 26037.63419825 .00000136 00000+0 41380-4 0 9995 2 42955 86.3921 79.8618 0002231 91.5798 268.5653 14.34217979436063 IRIDIUM 100 1 42956U 17061B 26037.62785575 .00000355 00000+0 11983-3 0 9991 2 42956 86.3921 79.7862 0002171 92.6271 267.5173 14.34218090436066 IRIDIUM 122 1 42957U 17061C 26037.66591130 .00000121 00000+0 36033-4 0 9993 2 42957 86.3919 79.7699 0002274 90.8086 269.3370 14.34217721436070 IRIDIUM 129 1 42958U 17061D 26037.62151255 .00000268 00000+0 88600-4 0 9999 2 42958 86.3918 79.8543 0002429 100.1524 259.9946 14.34216906436082 IRIDIUM 119 1 42959U 17061E 26037.65956890 .00000117 00000+0 34792-4 0 9997 2 42959 86.3922 79.8338 0002408 94.1482 265.9989 14.34217837436103 IRIDIUM 107 1 42960U 17061F 26037.60882779 .00000198 00000+0 63726-4 0 9996 2 42960 86.3922 79.8755 0002294 83.3071 276.8386 14.34218014436105 IRIDIUM 132 1 42961U 17061G 26037.61516931 .00000324 00000+0 10876-3 0 9990 2 42961 86.3920 79.8529 0002200 91.3424 268.8024 14.34218076436109 IRIDIUM 136 1 42962U 17061H 26037.64688392 .00000291 00000+0 96946-4 0 9991 2 42962 86.3920 79.8461 0002443 91.4798 268.6677 14.34217910436129 IRIDIUM 139 1 42963U 17061J 26037.65322513 .00000307 00000+0 10262-3 0 9997 2 42963 86.3922 79.9030 0002134 90.3923 269.7517 14.34217643436139 IRIDIUM 125 1 42964U 17061K 26037.64054023 .00000142 00000+0 43604-4 0 9999 2 42964 86.3925 79.9672 0002722 86.5802 273.5705 14.34217324436140 IRIDIUM 135 1 43070U 17083A 26037.33559222 .00000085 00000+0 23425-4 0 9994 2 43070 86.3975 16.6905 0002229 88.5933 271.5518 14.34218210425390 IRIDIUM 138 1 43071U 17083B 26037.84933902 .00000420 00000+0 14294-3 0 9998 2 43071 86.3992 16.1513 0002581 90.0437 270.1055 14.34220753425451 IRIDIUM 116 1 43072U 17083C 26037.39901707 .00000337 00000+0 11313-3 0 9993 2 43072 86.3973 16.6520 0001906 81.9430 278.1982 14.34217615425423 IRIDIUM 130 1 43073U 17083D 26037.85568336 .00000163 00000+0 51303-4 0 9993 2 43073 86.3985 16.7235 0002057 80.7059 279.4369 14.34218814425439 IRIDIUM 151 1 43074U 17083E 26037.27216598 .00000190 00000+0 60900-4 0 9993 2 43074 86.3977 16.7594 0002155 87.2608 272.8834 14.34217530425371 IRIDIUM 134 1 43075U 17083F 26037.44975842 .00000145 00000+0 44879-4 0 9994 2 43075 86.3978 16.6917 0002184 82.6832 277.4612 14.34217187425363 IRIDIUM 137 1 43076U 17083G 26037.39267255 .00000191 00000+0 61101-4 0 9999 2 43076 86.3983 16.8059 0001735 94.2240 265.9154 14.34217241425423 IRIDIUM 141 1 43077U 17083H 26037.38633162 .00000235 00000+0 76970-4 0 9992 2 43077 86.3978 16.6463 0002303 88.2542 271.8917 14.34219344425424 IRIDIUM 153 1 43078U 17083J 26037.82689244 .00000250 00000+0 82256-4 0 9995 2 43078 86.4013 344.9687 0002463 83.6460 276.5016 14.34218039426597 IRIDIUM 131 1 43079U 17083K 26037.86202909 .00000401 00000+0 13625-3 0 9990 2 43079 86.3982 16.6247 0002243 89.7576 270.3877 14.34215567425429 IRIDIUM 144 1 43249U 18030A 26037.83323333 .00000303 00000+0 10131-3 0 9994 2 43249 86.4010 344.8977 0002077 82.4369 277.7063 14.34218146411454 IRIDIUM 149 1 43250U 18030B 26037.83957629 .00000047 00000+0 97678-5 0 9995 2 43250 86.4003 344.8638 0002166 83.3485 276.7958 14.34217705411474 IRIDIUM 157 1 43251U 18030C 26037.85860399 -.00000020 00000+0 -14103-4 0 9999 2 43251 86.4005 344.9067 0002041 86.1806 273.9623 14.34217609411453 IRIDIUM 140 1 43252U 18030D 26037.80786331 .00000116 00000+0 34301-4 0 9994 2 43252 86.4014 344.9404 0002128 82.1551 277.9887 14.34218226411506 IRIDIUM 145 1 43253U 18030E 26037.86494628 .00000264 00000+0 87135-4 0 9993 2 43253 86.4014 344.8892 0001890 77.9959 282.1448 14.34218041411445 IRIDIUM 146 1 43254U 18030F 26037.84591864 -.00000047 00000+0 -24015-4 0 9991 2 43254 86.4007 344.9101 0001939 83.4165 276.7251 14.34217687411454 IRIDIUM 148 1 43255U 18030G 26037.81420553 -.00000035 00000+0 -19622-4 0 9990 2 43255 86.4007 344.9643 0002027 86.1719 273.9708 14.34217845411485 IRIDIUM 142 1 43256U 18030H 26037.85226032 .00000374 00000+0 12635-3 0 9991 2 43256 86.4010 344.8421 0001927 79.0085 281.1327 14.34217318411458 IRIDIUM 150 1 43257U 18030J 26037.82054396 .00000199 00000+0 63894-4 0 9990 2 43257 86.4014 344.9672 0002131 82.5620 277.5817 14.34217211411471 IRIDIUM 143 1 43258U 18030K 26037.80151883 .00000296 00000+0 98795-4 0 9994 2 43258 86.4016 345.0625 0002017 80.9670 279.1754 14.34219105411409 IRIDIUM 161 1 43478U 18047C 26037.82702653 .00000386 00000+0 10862-3 0 9993 2 43478 86.4543 142.9689 0002301 100.5574 259.5886 14.43282927406336 IRIDIUM 152 1 43479U 18047D 26037.84400809 .00000201 00000+0 64662-4 0 9998 2 43479 86.4019 142.8223 0002251 97.4176 262.7275 14.34218032403807 IRIDIUM 147 1 43480U 18047E 26037.78058154 .00000126 00000+0 38003-4 0 9991 2 43480 86.4018 142.8514 0001960 97.7835 262.3583 14.34217734403796 IRIDIUM 110 1 43481U 18047F 26037.78692473 .00000440 00000+0 14993-3 0 9990 2 43481 86.4017 142.9372 0002450 104.6291 255.5177 14.34217811403786 IRIDIUM 162 1 43482U 18047G 26037.82071279 .00000506 00000+0 14456-3 0 9998 2 43482 86.4541 142.8642 0002275 91.0394 269.1067 14.43277685406323 IRIDIUM 160 1 43569U 18061A 26037.73276042 .00000179 00000+0 56978-4 0 9997 2 43569 86.3966 111.3647 0002269 100.0498 260.0954 14.34217999394675 IRIDIUM 166 1 43570U 18061B 26037.61859320 -.00000016 00000+0 -12715-4 0 9995 2 43570 86.3965 111.3641 0001958 96.6800 263.4618 14.34217547394685 IRIDIUM 158 1 43571U 18061C 26037.72641793 -.00000193 00000+0 -76067-4 0 9997 2 43571 86.3966 111.3293 0002222 91.9474 268.1976 14.34217196394667 IRIDIUM 165 1 43572U 18061D 26037.68202002 .00000350 00000+0 11794-3 0 9997 2 43572 86.3967 111.3919 0002089 95.8367 264.3067 14.34220078394683 IRIDIUM 155 1 43573U 18061E 26037.71373227 -.00000004 00000+0 -85418-5 0 9994 2 43573 86.3968 111.2541 0002023 92.7445 267.3983 14.34217612394653 IRIDIUM 154 1 43574U 18061F 26037.69471162 .00000349 00000+0 11759-3 0 9994 2 43574 86.3968 111.3894 0002032 96.7816 263.3611 14.34221739394707 IRIDIUM 163 1 43575U 18061G 26037.74544537 .00000338 00000+0 11364-3 0 9998 2 43575 86.3967 111.2873 0002236 94.7715 265.3737 14.34219038394682 IRIDIUM 156 1 43576U 18061H 26037.72007448 .00000147 00000+0 45461-4 0 9996 2 43576 86.3964 111.3054 0002115 89.9248 270.2190 14.34218497394670 IRIDIUM 164 1 43577U 18061J 26037.70104645 -.00000109 00000+0 -45950-4 0 9995 2 43577 86.3965 111.3513 0001974 99.5523 260.5896 14.34217393394711 IRIDIUM 159 1 43578U 18061K 26037.73911280 .00000344 00000+0 11571-3 0 9990 2 43578 86.3965 111.2752 0002297 99.0883 261.0573 14.34217547394684 IRIDIUM 180 1 43922U 19002A 26037.59905620 .00000003 00000+0 -60083-5 0 9991 2 43922 86.3924 48.1710 0002211 94.5356 265.6093 14.34217125370273 IRIDIUM 176 1 43923U 19002B 26037.52507252 .00000538 00000+0 81463-4 0 9990 2 43923 86.6051 48.1643 0002457 89.4529 270.6969 14.72251662380028 IRIDIUM 168 1 43924U 19002C 26037.59271919 .00000001 00000+0 -66713-5 0 9994 2 43924 86.3926 48.2476 0002146 90.5902 269.5539 14.34217488370255 IRIDIUM 173 1 43925U 19002D 26037.58003302 .00000061 00000+0 14664-4 0 9995 2 43925 86.3924 48.1468 0002335 87.8686 272.2777 14.34217890370232 IRIDIUM 169 1 43926U 19002E 26037.62650539 .00000320 00000+0 98049-4 0 9998 2 43926 86.4177 79.7921 0002708 75.9410 284.2089 14.38611374371458 IRIDIUM 172 1 43927U 19002F 26037.64345955 .00000083 00000+0 22444-4 0 9996 2 43927 86.3927 48.1279 0002286 94.6358 265.5099 14.34218018370251 IRIDIUM 175 1 43928U 19002G 26037.86026874 .00002022 00000+0 31677-3 0 9999 2 43928 86.1542 347.2786 0001380 79.6654 280.4718 14.72241682380064 IRIDIUM 171 1 43929U 19002H 26037.55466148 .00000170 00000+0 53685-4 0 9994 2 43929 86.3937 48.4572 0002024 86.9017 273.2410 14.34218010370232 IRIDIUM 170 1 43930U 19002J 26037.53126387 .00000539 00000+0 81620-4 0 9991 2 43930 86.6050 48.1650 0002377 93.0057 267.1433 14.72249569380032 IRIDIUM 167 1 43931U 19002K 26037.54830729 .00000291 00000+0 96932-4 0 9992 2 43931 86.3935 48.1879 0001980 88.4510 271.6913 14.34214087370235 IRIDIUM 181 1 56726U 23068S 26037.69786961 .00000427 00000+0 12096-3 0 9998 2 56726 86.4505 111.3591 0002094 106.6913 253.4518 14.43310145143617 IRIDIUM 177 1 56727U 23068T 26037.51347558 .00000871 00000+0 11109-3 0 9992 2 56727 86.1951 30.8260 0002398 89.1349 271.0147 14.80226858147035 IRIDIUM 174 1 56728U 23068U 26037.51888631 .00000587 00000+0 89120-4 0 9998 2 56728 86.6058 48.3044 0002539 92.2142 267.9366 14.72249593146797 IRIDIUM 178 1 56729U 23068V 26037.63779354 .00001553 00000+0 20091-3 0 9998 2 56729 86.6494 79.9348 0001933 84.2115 275.9327 14.80242233147056 IRIDIUM 179 1 56730U 23068W 26037.63240339 .00001547 00000+0 20005-3 0 9994 2 56730 86.6740 88.5343 0002268 91.7128 268.4353 14.80246079147050